Regional Weather Roundup
Issued by NWS Charleston, SC

Current Version | Previous Version | Graphics & Text | Print | Product List | Glossary On
Versions: 1 2 3 4 5 6 7 8 9 10 11 12 13 14 15 16 17 18 19 20 21 22 23 24 25 26 27 28 29 30 31 32 33 34 35 36 37 38 39 40 41 42 43 44 45 46 47 48 49 50
000 ASUS42 KCHS 271627 RWRCHS REGIONAL WEATHER ROUNDUP NATIONAL WEATHER SERVICE CHARLESTON SC 1200 PM EDT TUE JUN 27 2017 NOTE: "FAIR" INDICATES FEW OR NO CLOUDS BELOW 12,000 FEET WITH NO SIGNIFICANT WEATHER AND/OR OBSTRUCTIONS TO VISIBILITY. NOT ALL STATIONS ARE QUALITY CONTROLLED. USE DATA WITH CAUTION... ESPECIALLY DEWPOINT OBSERVATIONS. SCZ027-030-031-034>040-042>050-271700- ...SOUTHEAST SOUTH CAROLINA... CITY SKY/WX TMP DP RH WIND PRES REMARKS N CHARLESTON CLOUDY 83 64 52 NE6 30.04S WATERFRONT PRK N/A 83 68 60 VRB3 30.02S JOHNS ISLAND FAIR 84 68 58 N5 30.05R PINOPOLIS N/A 81 72 74 CALM 29.98S MONCKS CORNER FAIR 82 64 54 N3 30.05R SUMMERVILLE FAIR 82 63 51 NE3 30.05S BEAUFORT MCAS PTSUNNY 85 70 60 VRB5 30.04S BEAUFORT ARPT FAIR 82 70 65 NE6 30.04S HILTON HEAD IS MOSUNNY 84 72 65 N7 30.04S WALTERBORO MOSUNNY 84 63 48 E3 30.05S ALLENDALE FAIR 84 64 51 CALM 30.04S ...SOUTHERN MIDLANDS AND PEE DEE... CITY SKY/WX TMP DP RH WIND PRES REMARKS GEORGETOWN FAIR 81 63 54 N3 30.05S KINGSTREE FAIR 82 61 47 NW3 30.04S ORANGEBURG MOSUNNY 83 62 49 VRB7 30.04F BARNWELL FAIR 86 64 48 CALM 30.04F AIKEN FAIR 81 57 44 W6 30.09F MANNING FAIR 84 66 54 N8G16 30.04S COLUMBIA PTSUNNY 84 62 47 N7 30.04F SUMTER NOT AVBL FLORENCE SUNNY 84 61 45 W7 30.04F MYRTLE BEACH SUNNY 82 63 51 W6 30.05S N MYRTLE BEACH MOSUNNY 84 64 50 NW5 30.03F $$ GAZ063-065-086>088-099>101-113>116-118-119-134>141-150-271700- ...SOUTHEAST GEORGIA... CITY SKY/WX TMP DP RH WIND PRES REMARKS SAVANNAH ARPT CLOUDY 84 70 62 NE5 30.04S HUNTER AAF CLOUDY 83 71 67 CALM 30.01S FORT STEWART PTSUNNY 83 70 65 E3 30.01F STATESBORO CLOUDY 85 70 59 N7 30.04F SYLVANIA CLOUDY 85 71 62 N3 30.05F HX 90 CLAXTON PTSUNNY 82 71 69 NW6 30.04S ...CSRA...CENTRAL AND FAR SOUTHEAST GEORGIA... CITY SKY/WX TMP DP RH WIND PRES REMARKS THOMSON PTSUNNY 82 58 45 NE8 30.12F AUGUSTA-BUSH SUNNY 87 63 44 N10 30.04F AUGUSTA-DANIEL MOSUNNY 85 56 37 N5 30.06F SWAINSBORO FAIR 84 64 51 NE5 30.06S VIDALIA MOSUNNY 86 72 62 N7 30.04F HX 92 EASTMAN FAIR 84 59 43 NE3 30.07F HAZLEHURST FAIR 87 71 58 CALM 30.03F HX 92 ALMA CLOUDY 83 71 67 CALM 30.03S WAYCROSS CLOUDY 85 79 80 E6 30.03F HX 98 JESUP CLOUDY 79 72 78 S3 30.04S BAXLEY CLOUDY 84 77 79 CALM 30.03S HX 94 BRUNSWICK PTSUNNY 86 73 66 NW6 30.03F HX 93 SAINT SIMONS CLOUDY 83 74 74 E9 30.02S $$ SCZ027-028-034-036>038-045-046-048>050-GAZ119-141-271700- ...LAKE AND SUPPLEMENTAL COASTAL OBSERVATIONS... STATION/POSITION TIME TEMP WIND PRES WAVE SWELL AIR SEA DIR/SP/G HT/PER HT/PER/DIR (UTC) (F) (DEG/KT/KT) (MB) (FT/S) (FT/S/D) WINYAH BAY 1545 81 350/ 3 1017.0S LAKE MURRAY 1530 81 10/ 1/ 6 1016.9S ACE BASIN NERRS 1545 85 20/ 2 1017.0S FORT PULASKI 1600 81 83 50/ 5/ 7 1017.6 SAPELO ISLAND 1600 82 60/ 7 1017.0 $$ ANZ835-935-AMZ111-154-330-350-352-354-370-450-454-472-271700- ...C-MAN AND BUOY OBSERVATIONS... STATION/POSITION TIME TEMP WIND PRES WAVE SWELL AIR SEA DIR/SP/G HT/PER HT/PER/DIR (UTC) (F) (DEG/KT/KT) (MB) (FT/S) (FT/S/D) BUOY 41004 1610 79 81 50/ 8/ 10 1016.9 BUOY 41008 1550 79 82 50/ 8/ 10 1016.7R 2/ 8 2/130/ 8 FOLLY BEACH CMAN 1600 81 40/ 5/ 6 1017.9R CAPERS NEARSHORE 1608 85 83 30/ 6/ 8 1017.1R FRIPP NEARSHORE 1608 81 83 70/ 6/ 8 1017.1R STATION/POSITION TIME TEMP WIND PRES WAVE SWELL AIR SEA DIR/SP/G HT/PER HT/PER/DIR (UTC) (F) (DEG/KT/KT) (MB) (FT/S) (FT/S/D) 5E ST. MARYS GA 1600 80 N/A 2/ 7 FRYING PAN BUOY 1610 79 80 30/ 6/ 6 1017.0 BUOY 41025 1550 78 81 350/ 6/ 8 1016.8R 2/ 7 2/ 80/ 7 CAPE LOOKOUT NC 1600 79 140/ 5/ 5 1016.6F BUOY 41002 1550 78 80 290/ 16/ 17 1017.3F 3/ 5 2/140/ 8 BUOY 41010 1610 83 84 220/ 12/ 12 1016.6 ST AUGUSTINE FL 1600 78 78 40/ 9/ 10 1016.7F $$

USA.gov is the U.S. government's official web portal to all federal, state and local government web resources and services.